Погода в Граватаи

Бразилия     29°56′48″S   50°57′49″W
темп.,
°C
ветер,
м/с
пор.,
м/с
влажн.,
%
обл.,
%
осадки,
мм/ч
давл.,
гПа
погр.,
м
25 июля, вс
вс2500:00+19ссв1160100 0.0 101511
03:00+18с1160100 0.0 101412
06:00+17с1160100 0.0 101411
09:00+19с135438 0.0 1015102
12:00+27ссз410331 0.0 1013719
15:00+30сз39290 0.0 10101279
18:00+25с114434 0.0 101115
21:00+23с2250100 0.0 101246
26 июля, пн
пн2600:00+22сз1254100 0.0 101344
03:00+21ссз2256100 0.0 101256
06:00+20юв1163100 0.0 101213
09:00+19в2471100 0.1 1013120
12:00+22вюв3563100 0.2 1013371
15:00+20ю2478100 0.2 1012207
18:00+18всв2688100 0.2 1011246
21:00+18ссв1590100 0.6 1012173
27 июля, вт
вт2700:00+18зюз2393100 0.3 1012119
03:00+14ю4992100 1.5 1014537
06:00+13юз4993100 2.3 1016779
09:00+11юз368798 5.0 1019656
12:00+13юз3560100 0.0 10191055
15:00+15юз36395 0.0 10171781
18:00+12юз48424 0.0 10191028
21:00+10юз47440 0.0 10211225
28 июля, ср
ср2800:00+8зюз47500 0.0 10221058
03:00+6з49580 0.0 1021687
06:00+5зсз411630 0.0 1022575
09:00+6з511575 0.0 1022693
12:00+10з69497 0.0 10221398
15:00+11з7104475 0.0 10201977
18:00+9з5115744 0.0 10211552
21:00+8з511576 0.1 10241229
29 июля, чт
чт2900:00+6з511655 0.0 10241059
03:00+5з612745 0.0 1024843
06:00+4зсз613765 0.0 1025688
09:00+5зсз61272100 0.0 1027721
12:00+9з5862100 0.0 1028958
15:00+10з4863100 0.0 10271087
18:00+9зсз4968100 0.0 1029838
21:00+9з3769100 0.0 1031590